owner,sensor,date,latitude,longitude,vertical_datum,mass_concentration_of_oxygen_in_sea_water,qcFlag 
DISL,ioos:station:DISL:CATA:1,2014-09-01T00:00:00Z,30.3085,-88.1395,2.4,7.2,1111122 
DISL,ioos:station:DISL:CATA:1,2014-09-01T00:30:00Z,30.3085,-88.1395,2.402,6.76,1111122 
DISL,ioos:station:DISL:CATA:1,2014-09-01T01:00:00Z,30.3085,-88.1395,2.412,6.77,1111122 
DISL,ioos:station:DISL:CATA:1,2014-09-01T01:30:00Z,30.3085,-88.1395,2.43,6.55,1111122 
DISL,ioos:station:DISL:CATA:1,2014-09-01T02:00:00Z,30.3085,-88.1395,2.443,6.72,1111122 
DISL,ioos:station:DISL:CATA:1,2014-09-01T02:30:00Z,30.3085,-88.1395,2.454,6.75,1111122 
DISL,ioos:station:DISL:CATA:1,2014-09-01T03:00:00Z,30.3085,-88.1395,2.468,6.8,1111122 
DISL,ioos:station:DISL:CATA:1,2014-09-01T03:30:00Z,30.3085,-88.1395,2.492,6.9,1111122 
DISL,ioos:station:DISL:CATA:1,2014-09-01T04:00:00Z,30.3085,-88.1395,2.498,6.89,1111122 
DISL,ioos:station:DISL:CATA:1,2014-09-01T04:30:00Z,30.3085,-88.1395,2.503,6.77,1111122 
DISL,ioos:station:DISL:CATA:1,2014-09-01T05:00:00Z,30.3085,-88.1395,2.516,6.8,1111122 
DISL,ioos:station:DISL:CATA:1,2014-09-01T05:30:00Z,30.3085,-88.1395,2.533,6.87,1111122 
DISL,ioos:station:DISL:CATA:1,2014-09-01T06:00:00Z,30.3085,-88.1395,2.542,6.78,1111122 
DISL,ioos:station:DISL:CATA:1,2014-09-01T06:30:00Z,30.3085,-88.1395,2.566,6.91,1111122 
DISL,ioos:station:DISL:CATA:1,2014-09-01T07:00:00Z,30.3085,-88.1395,2.576,6.92,1111122 
DISL,ioos:station:DISL:CATA:1,2014-09-01T07:30:00Z,30.3085,-88.1395,2.584,7.04,1111122 
DISL,ioos:station:DISL:CATA:1,2014-09-01T08:00:00Z,30.3085,-88.1395,2.588,7.06,1111122 
DISL,ioos:station:DISL:CATA:1,2014-09-01T08:30:00Z,30.3085,-88.1395,2.59,6.93,1111122 
DISL,ioos:station:DISL:CATA:1,2014-09-01T09:00:00Z,30.3085,-88.1395,2.605,6.95,1111122 
DISL,ioos:station:DISL:CATA:1,2014-09-01T09:30:00Z,30.3085,-88.1395,2.59,6.86,1111122 
DISL,ioos:station:DISL:CATA:1,2014-09-01T10:00:00Z,30.3085,-88.1395,2.599,6.83,1111122 
DISL,ioos:station:DISL:CATA:1,2014-09-01T10:30:00Z,30.3085,-88.1395,2.567,6.72,1111122 
DISL,ioos:station:DISL:CATA:1,2014-09-01T11:00:00Z,30.3085,-88.1395,2.563,6.24,1111122 
DISL,ioos:station:DISL:CATA:1,2014-09-01T11:30:00Z,30.3085,-88.1395,2.535,5.78,1111122 
DISL,ioos:station:DISL:CATA:1,2014-09-01T12:00:00Z,30.3085,-88.1395,2.516,5.7,1111122 
DISL,ioos:station:DISL:CATA:1,2014-09-01T12:30:00Z,30.3085,-88.1395,2.494,5.85,1111122 
DISL,ioos:station:DISL:CATA:1,2014-09-01T13:00:00Z,30.3085,-88.1395,2.466,6.05,1111122 
DISL,ioos:station:DISL:CATA:1,2014-09-01T13:30:00Z,30.3085,-88.1395,2.435,6.21,1111122 
DISL,ioos:station:DISL:CATA:1,2014-09-01T14:00:00Z,30.3085,-88.1395,2.41,6.39,1111122 
DISL,ioos:station:DISL:CATA:1,2014-09-01T14:30:00Z,30.3085,-88.1395,2.387,6.4,1111122 
DISL,ioos:station:DISL:CATA:1,2014-09-01T15:00:00Z,30.3085,-88.1395,2.363,6.49,1111122 
DISL,ioos:station:DISL:CATA:1,2014-09-01T15:30:00Z,30.3085,-88.1395,2.339,6.51,1111122 
DISL,ioos:station:DISL:CATA:1,2014-09-01T16:00:00Z,30.3085,-88.1395,2.321,6.59,1111122 
DISL,ioos:station:DISL:CATA:1,2014-09-01T16:30:00Z,30.3085,-88.1395,2.298,6.64,1111122 
DISL,ioos:station:DISL:CATA:1,2014-09-01T17:00:00Z,30.3085,-88.1395,2.293,6.69,1111122 
DISL,ioos:station:DISL:CATA:1,2014-09-01T17:30:00Z,30.3085,-88.1395,2.284,6.78,1111122 
DISL,ioos:station:DISL:CATA:1,2014-09-01T18:00:00Z,30.3085,-88.1395,2.279,6.86,1111122 
DISL,ioos:station:DISL:CATA:1,2014-09-01T18:30:00Z,30.3085,-88.1395,2.268,6.87,1111122 
DISL,ioos:station:DISL:CATA:1,2014-09-01T19:00:00Z,30.3085,-88.1395,2.263,6.92,1111122 
DISL,ioos:station:DISL:CATA:1,2014-09-01T19:30:00Z,30.3085,-88.1395,2.255,7.06,1111122 
DISL,ioos:station:DISL:CATA:1,2014-09-01T20:00:00Z,30.3085,-88.1395,2.251,7.11,1111122 
DISL,ioos:station:DISL:CATA:1,2014-09-01T20:30:00Z,30.3085,-88.1395,2.242,7.14,1111122 
DISL,ioos:station:DISL:CATA:1,2014-09-01T21:00:00Z,30.3085,-88.1395,2.262,7.12,1111122 
DISL,ioos:station:DISL:CATA:1,2014-09-01T21:30:00Z,30.3085,-88.1395,2.269,7.1,1111122 
DISL,ioos:station:DISL:CATA:1,2014-09-01T22:00:00Z,30.3085,-88.1395,2.272,7.07,1111122 
DISL,ioos:station:DISL:CATA:1,2014-09-01T22:30:00Z,30.3085,-88.1395,2.298,6.94,1111122 
DISL,ioos:station:DISL:CATA:1,2014-09-01T23:00:00Z,30.3085,-88.1395,2.308,6.89,1111122 
DISL,ioos:station:DISL:CATA:1,2014-09-01T23:30:00Z,30.3085,-88.1395,2.319,5.9,1111122 
DISL,ioos:station:DISL:CATA:1,2014-09-02T00:00:00Z,30.3085,-88.1395,2.321,5.72,1111122 
DISL,ioos:station:DISL:CATA:1,2014-09-02T00:30:00Z,30.3085,-88.1395,2.335,6.06,1111122 
DISL,ioos:station:DISL:CATA:1,2014-09-02T01:00:00Z,30.3085,-88.1395,2.358,6.39,1111122 
DISL,ioos:station:DISL:CATA:1,2014-09-02T01:30:00Z,30.3085,-88.1395,2.377,6.47,1111122 
DISL,ioos:station:DISL:CATA:1,2014-09-02T02:00:00Z,30.3085,-88.1395,2.38,6.35,1111122 
DISL,ioos:station:DISL:CATA:1,2014-09-02T02:30:00Z,30.3085,-88.1395,2.396,6.09,1111122 
DISL,ioos:station:DISL:CATA:1,2014-09-02T03:00:00Z,30.3085,-88.1395,2.407,5.87,1111122 
DISL,ioos:station:DISL:CATA:1,2014-09-02T03:30:00Z,30.3085,-88.1395,2.434,6.0,1111122 
DISL,ioos:station:DISL:CATA:1,2014-09-02T04:00:00Z,30.3085,-88.1395,2.447,6.01,1111122 
DISL,ioos:station:DISL:CATA:1,2014-09-02T04:30:00Z,30.3085,-88.1395,2.448,5.84,1111122 
DISL,ioos:station:DISL:CATA:1,2014-09-02T05:00:00Z,30.3085,-88.1395,2.469,5.86,1111122 
DISL,ioos:station:DISL:CATA:1,2014-09-02T05:30:00Z,30.3085,-88.1395,2.484,5.95,1111122 
DISL,ioos:station:DISL:CATA:1,2014-09-02T06:00:00Z,30.3085,-88.1395,2.515,5.92,1111122 
DISL,ioos:station:DISL:CATA:1,2014-09-02T06:30:00Z,30.3085,-88.1395,2.545,5.94,1111122 
DISL,ioos:station:DISL:CATA:1,2014-09-02T07:00:00Z,30.3085,-88.1395,2.551,5.99,1111122 
DISL,ioos:station:DISL:CATA:1,2014-09-02T07:30:00Z,30.3085,-88.1395,2.565,6.06,1111122 
DISL,ioos:station:DISL:CATA:1,2014-09-02T08:00:00Z,30.3085,-88.1395,2.592,6.11,1111122 
DISL,ioos:station:DISL:CATA:1,2014-09-02T08:30:00Z,30.3085,-88.1395,2.608,6.17,1111122 
DISL,ioos:station:DISL:CATA:1,2014-09-02T09:00:00Z,30.3085,-88.1395,2.599,6.17,1111122 
DISL,ioos:station:DISL:CATA:1,2014-09-02T09:30:00Z,30.3085,-88.1395,2.593,6.13,1111122 
DISL,ioos:station:DISL:CATA:1,2014-09-02T10:00:00Z,30.3085,-88.1395,2.593,5.95,1111122 
DISL,ioos:station:DISL:CATA:1,2014-09-02T10:30:00Z,30.3085,-88.1395,2.57,5.78,1111122 
DISL,ioos:station:DISL:CATA:1,2014-09-02T11:00:00Z,30.3085,-88.1395,2.55,3.94,1111122 
DISL,ioos:station:DISL:CATA:1,2014-09-02T11:30:00Z,30.3085,-88.1395,2.517,5.45,1111122 
DISL,ioos:station:DISL:CATA:1,2014-09-02T12:00:00Z,30.3085,-88.1395,2.505,5.5,1111122 
DISL,ioos:station:DISL:CATA:1,2014-09-02T12:30:00Z,30.3085,-88.1395,2.478,5.39,1111122 
DISL,ioos:station:DISL:CATA:1,2014-09-02T13:00:00Z,30.3085,-88.1395,2.448,5.45,1111122 
DISL,ioos:station:DISL:CATA:1,2014-09-02T13:30:00Z,30.3085,-88.1395,2.431,5.62,1111122 
DISL,ioos:station:DISL:CATA:1,2014-09-02T14:00:00Z,30.3085,-88.1395,2.401,5.67,1111122 
DISL,ioos:station:DISL:CATA:1,2014-09-02T14:30:00Z,30.3085,-88.1395,2.364,5.72,1111122 
DISL,ioos:station:DISL:CATA:1,2014-09-02T15:00:00Z,30.3085,-88.1395,2.342,5.86,1111122 
DISL,ioos:station:DISL:CATA:1,2014-09-02T15:30:00Z,30.3085,-88.1395,2.303,6.01,1111122 
DISL,ioos:station:DISL:CATA:1,2014-09-02T16:00:00Z,30.3085,-88.1395,2.277,6.16,1111122 
DISL,ioos:station:DISL:CATA:1,2014-09-02T16:30:00Z,30.3085,-88.1395,2.243,6.32,1111122 
DISL,ioos:station:DISL:CATA:1,2014-09-02T17:00:00Z,30.3085,-88.1395,2.218,6.49,1111122 
DISL,ioos:station:DISL:CATA:1,2014-09-02T17:30:00Z,30.3085,-88.1395,2.2,6.58,1111122 
DISL,ioos:station:DISL:CATA:1,2014-09-02T18:00:00Z,30.3085,-88.1395,2.214,6.66,1111122 
DISL,ioos:station:DISL:CATA:1,2014-09-02T18:30:00Z,30.3085,-88.1395,2.207,6.72,1111122 
DISL,ioos:station:DISL:CATA:1,2014-09-02T19:00:00Z,30.3085,-88.1395,2.197,6.8,1111122 
DISL,ioos:station:DISL:CATA:1,2014-09-02T19:30:00Z,30.3085,-88.1395,2.196,6.93,1111122 
DISL,ioos:station:DISL:CATA:1,2014-09-02T20:00:00Z,30.3085,-88.1395,2.184,6.91,1111122 
DISL,ioos:station:DISL:CATA:1,2014-09-02T20:30:00Z,30.3085,-88.1395,2.176,6.85,1111122 
DISL,ioos:station:DISL:CATA:1,2014-09-02T21:00:00Z,30.3085,-88.1395,2.177,6.88,1111122 
DISL,ioos:station:DISL:CATA:1,2014-09-02T21:30:00Z,30.3085,-88.1395,2.185,6.91,1111122 
DISL,ioos:station:DISL:CATA:1,2014-09-02T22:00:00Z,30.3085,-88.1395,2.2,6.85,1111122 
DISL,ioos:station:DISL:CATA:1,2014-09-02T22:30:00Z,30.3085,-88.1395,2.213,6.87,1111122 
DISL,ioos:station:DISL:CATA:1,2014-09-02T23:00:00Z,30.3085,-88.1395,2.219,6.79,1111122 
DISL,ioos:station:DISL:CATA:1,2014-09-02T23:30:00Z,30.3085,-88.1395,2.225,6.56,1111122 
DISL,ioos:station:DISL:CATA:1,2014-09-03T00:00:00Z,30.3085,-88.1395,2.245,5.83,1111122 
DISL,ioos:station:DISL:CATA:1,2014-09-03T00:30:00Z,30.3085,-88.1395,2.267,6.54,1111122 
DISL,ioos:station:DISL:CATA:1,2014-09-03T01:00:00Z,30.3085,-88.1395,2.295,6.63,1111122 
DISL,ioos:station:DISL:CATA:1,2014-09-03T01:30:00Z,30.3085,-88.1395,2.317,6.67,1111122 
DISL,ioos:station:DISL:CATA:1,2014-09-03T02:00:00Z,30.3085,-88.1395,2.329,6.57,1111122 
DISL,ioos:station:DISL:CATA:1,2014-09-03T02:30:00Z,30.3085,-88.1395,2.34,6.57,1111122 
DISL,ioos:station:DISL:CATA:1,2014-09-03T03:00:00Z,30.3085,-88.1395,2.362,6.49,1111122 
DISL,ioos:station:DISL:CATA:1,2014-09-03T03:30:00Z,30.3085,-88.1395,2.382,6.45,1111122 
DISL,ioos:station:DISL:CATA:1,2014-09-03T04:00:00Z,30.3085,-88.1395,2.4,6.25,1111122 
DISL,ioos:station:DISL:CATA:1,2014-09-03T04:30:00Z,30.3085,-88.1395,2.419,6.27,1111122 
DISL,ioos:station:DISL:CATA:1,2014-09-03T05:00:00Z,30.3085,-88.1395,2.43,6.27,1111122 
DISL,ioos:station:DISL:CATA:1,2014-09-03T05:30:00Z,30.3085,-88.1395,2.461,6.33,1111122 
DISL,ioos:station:DISL:CATA:1,2014-09-03T06:00:00Z,30.3085,-88.1395,2.474,6.4,1111122 
DISL,ioos:station:DISL:CATA:1,2014-09-03T06:30:00Z,30.3085,-88.1395,2.504,6.35,1111122 
DISL,ioos:station:DISL:CATA:1,2014-09-03T07:00:00Z,30.3085,-88.1395,2.516,6.27,1111122 
DISL,ioos:station:DISL:CATA:1,2014-09-03T07:30:00Z,30.3085,-88.1395,2.511,6.08,1111122 
DISL,ioos:station:DISL:CATA:1,2014-09-03T08:00:00Z,30.3085,-88.1395,2.53,5.88,1111122 
DISL,ioos:station:DISL:CATA:1,2014-09-03T08:30:00Z,30.3085,-88.1395,2.522,5.83,1111122 
DISL,ioos:station:DISL:CATA:1,2014-09-03T09:00:00Z,30.3085,-88.1395,2.537,5.47,1111122 
DISL,ioos:station:DISL:CATA:1,2014-09-03T09:30:00Z,30.3085,-88.1395,2.563,5.32,1111122 
DISL,ioos:station:DISL:CATA:1,2014-09-03T10:00:00Z,30.3085,-88.1395,2.568,5.24,1111122 
DISL,ioos:station:DISL:CATA:1,2014-09-03T10:30:00Z,30.3085,-88.1395,2.569,5.38,1111122 
DISL,ioos:station:DISL:CATA:1,2014-09-03T11:00:00Z,30.3085,-88.1395,2.579,4.95,1111122 
DISL,ioos:station:DISL:CATA:1,2014-09-03T11:30:00Z,30.3085,-88.1395,2.576,5.48,1111122 
DISL,ioos:station:DISL:CATA:1,2014-09-03T12:00:00Z,30.3085,-88.1395,2.562,5.48,1111122 
DISL,ioos:station:DISL:CATA:1,2014-09-03T12:30:00Z,30.3085,-88.1395,2.554,5.3,1111122 
DISL,ioos:station:DISL:CATA:1,2014-09-03T13:00:00Z,30.3085,-88.1395,2.517,5.03,1111122 
DISL,ioos:station:DISL:CATA:1,2014-09-03T13:30:00Z,30.3085,-88.1395,2.48,5.16,1111122 
DISL,ioos:station:DISL:CATA:1,2014-09-03T14:00:00Z,30.3085,-88.1395,2.457,5.09,1111122 
DISL,ioos:station:DISL:CATA:1,2014-09-03T14:30:00Z,30.3085,-88.1395,2.421,5.72,1111122 
DISL,ioos:station:DISL:CATA:1,2014-09-03T15:00:00Z,30.3085,-88.1395,2.382,6.36,1111122 
DISL,ioos:station:DISL:CATA:1,2014-09-03T15:30:00Z,30.3085,-88.1395,2.325,6.01,1111122 
DISL,ioos:station:DISL:CATA:1,2014-09-03T16:00:00Z,30.3085,-88.1395,2.291,6.0,1111122 
DISL,ioos:station:DISL:CATA:1,2014-09-03T16:30:00Z,30.3085,-88.1395,2.265,6.18,1111122 
DISL,ioos:station:DISL:CATA:1,2014-09-03T17:00:00Z,30.3085,-88.1395,2.23,6.29,1111122 
DISL,ioos:station:DISL:CATA:1,2014-09-03T17:30:00Z,30.3085,-88.1395,2.216,6.27,1111122 
DISL,ioos:station:DISL:CATA:1,2014-09-03T18:00:00Z,30.3085,-88.1395,2.195,6.53,1111122 
DISL,ioos:station:DISL:CATA:1,2014-09-03T18:30:00Z,30.3085,-88.1395,2.167,6.56,1111122 
DISL,ioos:station:DISL:CATA:1,2014-09-03T19:00:00Z,30.3085,-88.1395,2.145,6.38,1111122 
DISL,ioos:station:DISL:CATA:1,2014-09-03T19:30:00Z,30.3085,-88.1395,2.13,6.71,1111122 
DISL,ioos:station:DISL:CATA:1,2014-09-03T20:00:00Z,30.3085,-88.1395,2.133,6.92,1111122 
DISL,ioos:station:DISL:CATA:1,2014-09-03T20:30:00Z,30.3085,-88.1395,2.145,7.05,1111122 
DISL,ioos:station:DISL:CATA:1,2014-09-03T21:00:00Z,30.3085,-88.1395,2.149,7.12,1111122 
DISL,ioos:station:DISL:CATA:1,2014-09-03T21:30:00Z,30.3085,-88.1395,2.141,6.97,1111122 
DISL,ioos:station:DISL:CATA:1,2014-09-03T22:00:00Z,30.3085,-88.1395,2.143,6.91,1111122 
DISL,ioos:station:DISL:CATA:1,2014-09-03T22:30:00Z,30.3085,-88.1395,2.152,6.7,1111122 
DISL,ioos:station:DISL:CATA:1,2014-09-03T23:00:00Z,30.3085,-88.1395,2.15,6.57,1111122 
DISL,ioos:station:DISL:CATA:1,2014-09-03T23:30:00Z,30.3085,-88.1395,2.15,7.03,1111122 
DISL,ioos:station:DISL:CATA:1,2014-09-04T00:00:00Z,30.3085,-88.1395,2.168,7.6,1111122 
DISL,ioos:station:DISL:CATA:1,2014-09-04T00:30:00Z,30.3085,-88.1395,2.189,7.36,1111122 
DISL,ioos:station:DISL:CATA:1,2014-09-04T01:00:00Z,30.3085,-88.1395,2.216,7.03,1111122 
DISL,ioos:station:DISL:CATA:1,2014-09-04T01:30:00Z,30.3085,-88.1395,2.227,6.9,1111122 
DISL,ioos:station:DISL:CATA:1,2014-09-04T02:00:00Z,30.3085,-88.1395,2.249,6.83,1111122 
DISL,ioos:station:DISL:CATA:1,2014-09-04T02:30:00Z,30.3085,-88.1395,2.269,6.78,1111122 
DISL,ioos:station:DISL:CATA:1,2014-09-04T03:00:00Z,30.3085,-88.1395,2.289,6.64,1111122 
DISL,ioos:station:DISL:CATA:1,2014-09-04T03:30:00Z,30.3085,-88.1395,2.336,6.51,1111122 
DISL,ioos:station:DISL:CATA:1,2014-09-04T04:00:00Z,30.3085,-88.1395,2.348,6.77,1111122 
DISL,ioos:station:DISL:CATA:1,2014-09-04T04:30:00Z,30.3085,-88.1395,2.36,6.76,1111122 
DISL,ioos:station:DISL:CATA:1,2014-09-04T05:00:00Z,30.3085,-88.1395,2.392,6.63,1111122 
DISL,ioos:station:DISL:CATA:1,2014-09-04T05:30:00Z,30.3085,-88.1395,2.429,6.42,1111122 
DISL,ioos:station:DISL:CATA:1,2014-09-04T06:00:00Z,30.3085,-88.1395,2.447,6.27,1111122 
DISL,ioos:station:DISL:CATA:1,2014-09-04T06:30:00Z,30.3085,-88.1395,2.47,6.3,1111122 
DISL,ioos:station:DISL:CATA:1,2014-09-04T07:00:00Z,30.3085,-88.1395,2.482,6.22,1111122 
DISL,ioos:station:DISL:CATA:1,2014-09-04T07:30:00Z,30.3085,-88.1395,2.515,5.98,1111122 
DISL,ioos:station:DISL:CATA:1,2014-09-04T08:00:00Z,30.3085,-88.1395,2.533,5.88,1111122 
DISL,ioos:station:DISL:CATA:1,2014-09-04T08:30:00Z,30.3085,-88.1395,2.54,5.9,1111122 
DISL,ioos:station:DISL:CATA:1,2014-09-04T09:00:00Z,30.3085,-88.1395,2.559,5.93,1111122 
DISL,ioos:station:DISL:CATA:1,2014-09-04T09:30:00Z,30.3085,-88.1395,2.598,5.88,1111122 
DISL,ioos:station:DISL:CATA:1,2014-09-04T10:00:00Z,30.3085,-88.1395,2.614,5.92,1111122 
DISL,ioos:station:DISL:CATA:1,2014-09-04T10:30:00Z,30.3085,-88.1395,2.614,6.11,1111122 
DISL,ioos:station:DISL:CATA:1,2014-09-04T11:00:00Z,30.3085,-88.1395,2.62,6.22,1111122 
DISL,ioos:station:DISL:CATA:1,2014-09-04T11:30:00Z,30.3085,-88.1395,2.623,6.35,1111122 
DISL,ioos:station:DISL:CATA:1,2014-09-04T12:00:00Z,30.3085,-88.1395,2.607,6.22,1111122 
DISL,ioos:station:DISL:CATA:1,2014-09-04T12:30:00Z,30.3085,-88.1395,2.583,6.06,1111122 
DISL,ioos:station:DISL:CATA:1,2014-09-04T13:00:00Z,30.3085,-88.1395,2.584,5.44,1111122 
DISL,ioos:station:DISL:CATA:1,2014-09-04T13:30:00Z,30.3085,-88.1395,2.553,5.4,1111122 
DISL,ioos:station:DISL:CATA:1,2014-09-04T14:00:00Z,30.3085,-88.1395,2.518,6.41,1111122 
DISL,ioos:station:DISL:CATA:1,2014-09-04T14:30:00Z,30.3085,-88.1395,2.502,5.74,1111122 
DISL,ioos:station:DISL:CATA:1,2014-09-04T15:00:00Z,30.3085,-88.1395,2.487,5.72,1111122 
DISL,ioos:station:DISL:CATA:1,2014-09-04T15:30:00Z,30.3085,-88.1395,2.464,5.99,1111122 
DISL,ioos:station:DISL:CATA:1,2014-09-04T16:00:00Z,30.3085,-88.1395,2.417,6.0,1111122 
DISL,ioos:station:DISL:CATA:1,2014-09-04T16:30:00Z,30.3085,-88.1395,2.384,6.25,1111122 
DISL,ioos:station:DISL:CATA:1,2014-09-04T17:00:00Z,30.3085,-88.1395,2.355,6.68,1111122 
DISL,ioos:station:DISL:CATA:1,2014-09-04T17:30:00Z,30.3085,-88.1395,2.301,6.73,1111122 
DISL,ioos:station:DISL:CATA:1,2014-09-04T18:00:00Z,30.3085,-88.1395,2.258,6.77,1111122 
DISL,ioos:station:DISL:CATA:1,2014-09-04T18:30:00Z,30.3085,-88.1395,2.217,6.86,1111122 
DISL,ioos:station:DISL:CATA:1,2014-09-04T19:00:00Z,30.3085,-88.1395,2.193,6.9,1111122 
DISL,ioos:station:DISL:CATA:1,2014-09-04T19:30:00Z,30.3085,-88.1395,2.161,6.99,1111122 
DISL,ioos:station:DISL:CATA:1,2014-09-04T20:00:00Z,30.3085,-88.1395,2.139,7.08,1111122 
DISL,ioos:station:DISL:CATA:1,2014-09-04T20:30:00Z,30.3085,-88.1395,2.126,7.11,1111122 
DISL,ioos:station:DISL:CATA:1,2014-09-04T21:00:00Z,30.3085,-88.1395,2.128,7.38,1111122 
DISL,ioos:station:DISL:CATA:1,2014-09-04T21:30:00Z,30.3085,-88.1395,2.132,7.47,1111122 
DISL,ioos:station:DISL:CATA:1,2014-09-04T22:00:00Z,30.3085,-88.1395,2.126,7.53,1111122 
DISL,ioos:station:DISL:CATA:1,2014-09-04T22:30:00Z,30.3085,-88.1395,2.123,7.58,1111122 
DISL,ioos:station:DISL:CATA:1,2014-09-04T23:00:00Z,30.3085,-88.1395,2.147,7.49,1111122 
DISL,ioos:station:DISL:CATA:1,2014-09-04T23:30:00Z,30.3085,-88.1395,2.104,7.38,1111122 
DISL,ioos:station:DISL:CATA:1,2014-09-05T00:00:00Z,30.3085,-88.1395,2.111,7.31,1111122 
DISL,ioos:station:DISL:CATA:1,2014-09-05T00:30:00Z,30.3085,-88.1395,2.13,7.38,1111122 
DISL,ioos:station:DISL:CATA:1,2014-09-05T01:00:00Z,30.3085,-88.1395,2.149,7.28,1111122 
DISL,ioos:station:DISL:CATA:1,2014-09-05T01:30:00Z,30.3085,-88.1395,2.169,7.06,1111122 
DISL,ioos:station:DISL:CATA:1,2014-09-05T02:00:00Z,30.3085,-88.1395,2.187,5.93,1111122 
DISL,ioos:station:DISL:CATA:1,2014-09-05T02:30:00Z,30.3085,-88.1395,2.213,6.58,1111122 
DISL,ioos:station:DISL:CATA:1,2014-09-05T03:00:00Z,30.3085,-88.1395,2.244,6.74,1111122 
DISL,ioos:station:DISL:CATA:1,2014-09-05T03:30:00Z,30.3085,-88.1395,2.267,6.79,1111122 
DISL,ioos:station:DISL:CATA:1,2014-09-05T04:00:00Z,30.3085,-88.1395,2.294,6.67,1111122 
DISL,ioos:station:DISL:CATA:1,2014-09-05T04:30:00Z,30.3085,-88.1395,2.311,6.6,1111122 
DISL,ioos:station:DISL:CATA:1,2014-09-05T05:00:00Z,30.3085,-88.1395,2.317,6.53,1111122 
DISL,ioos:station:DISL:CATA:1,2014-09-05T05:30:00Z,30.3085,-88.1395,2.342,6.45,1111122 
DISL,ioos:station:DISL:CATA:1,2014-09-05T06:00:00Z,30.3085,-88.1395,2.36,6.35,1111122 
DISL,ioos:station:DISL:CATA:1,2014-09-05T06:30:00Z,30.3085,-88.1395,2.385,6.14,1111122 
DISL,ioos:station:DISL:CATA:1,2014-09-05T07:00:00Z,30.3085,-88.1395,2.412,6.05,1111122 
DISL,ioos:station:DISL:CATA:1,2014-09-05T07:30:00Z,30.3085,-88.1395,2.438,6.03,1111122 
DISL,ioos:station:DISL:CATA:1,2014-09-05T08:00:00Z,30.3085,-88.1395,2.476,6.05,1111122 
DISL,ioos:station:DISL:CATA:1,2014-09-05T08:30:00Z,30.3085,-88.1395,2.487,5.99,1111122 
DISL,ioos:station:DISL:CATA:1,2014-09-05T09:00:00Z,30.3085,-88.1395,2.527,6.04,1111122 
DISL,ioos:station:DISL:CATA:1,2014-09-05T09:30:00Z,30.3085,-88.1395,2.555,5.99,1111122 
DISL,ioos:station:DISL:CATA:1,2014-09-05T10:00:00Z,30.3085,-88.1395,2.578,5.95,1111122 
DISL,ioos:station:DISL:CATA:1,2014-09-05T10:30:00Z,30.3085,-88.1395,2.578,5.96,1111122 
DISL,ioos:station:DISL:CATA:1,2014-09-05T11:00:00Z,30.3085,-88.1395,2.582,5.79,1111122 
DISL,ioos:station:DISL:CATA:1,2014-09-05T11:30:00Z,30.3085,-88.1395,2.595,5.71,1111122 
DISL,ioos:station:DISL:CATA:1,2014-09-05T12:00:00Z,30.3085,-88.1395,2.588,5.57,1111122 
DISL,ioos:station:DISL:CATA:1,2014-09-05T12:30:00Z,30.3085,-88.1395,2.57,5.33,1111122 
DISL,ioos:station:DISL:CATA:1,2014-09-05T13:00:00Z,30.3085,-88.1395,2.565,4.87,1111122 
DISL,ioos:station:DISL:CATA:1,2014-09-05T13:30:00Z,30.3085,-88.1395,2.575,5.1,1111122 
DISL,ioos:station:DISL:CATA:1,2014-09-05T14:00:00Z,30.3085,-88.1395,2.56,5.19,1111122 
DISL,ioos:station:DISL:CATA:1,2014-09-05T14:30:00Z,30.3085,-88.1395,2.553,5.28,1111122 
DISL,ioos:station:DISL:CATA:1,2014-09-05T15:00:00Z,30.3085,-88.1395,2.531,5.6,1111122 
DISL,ioos:station:DISL:CATA:1,2014-09-05T15:30:00Z,30.3085,-88.1395,2.507,5.82,1111122 
DISL,ioos:station:DISL:CATA:1,2014-09-05T16:00:00Z,30.3085,-88.1395,2.477,5.98,1111122 
DISL,ioos:station:DISL:CATA:1,2014-09-05T16:30:00Z,30.3085,-88.1395,2.43,5.91,1111122 
DISL,ioos:station:DISL:CATA:1,2014-09-05T17:00:00Z,30.3085,-88.1395,2.387,5.82,1111122 
DISL,ioos:station:DISL:CATA:1,2014-09-05T17:30:00Z,30.3085,-88.1395,2.333,6.48,1111122 
DISL,ioos:station:DISL:CATA:1,2014-09-05T18:00:00Z,30.3085,-88.1395,2.287,6.59,1111122 
DISL,ioos:station:DISL:CATA:1,2014-09-05T18:30:00Z,30.3085,-88.1395,2.246,6.68,1111122 
DISL,ioos:station:DISL:CATA:1,2014-09-05T19:00:00Z,30.3085,-88.1395,2.195,6.56,1111122 
DISL,ioos:station:DISL:CATA:1,2014-09-05T19:30:00Z,30.3085,-88.1395,2.157,6.57,1111122 
DISL,ioos:station:DISL:CATA:1,2014-09-05T20:00:00Z,30.3085,-88.1395,2.125,6.71,1111122 
DISL,ioos:station:DISL:CATA:1,2014-09-05T20:30:00Z,30.3085,-88.1395,2.102,6.65,1111122 
DISL,ioos:station:DISL:CATA:1,2014-09-05T21:00:00Z,30.3085,-88.1395,2.098,6.56,1111122 
DISL,ioos:station:DISL:CATA:1,2014-09-05T21:30:00Z,30.3085,-88.1395,2.086,6.52,1111122 
DISL,ioos:station:DISL:CATA:1,2014-09-05T22:00:00Z,30.3085,-88.1395,2.085,6.64,1111122 
DISL,ioos:station:DISL:CATA:1,2014-09-05T22:30:00Z,30.3085,-88.1395,2.078,7.03,1111122 
DISL,ioos:station:DISL:CATA:1,2014-09-05T23:00:00Z,30.3085,-88.1395,2.091,7.05,1111122 
DISL,ioos:station:DISL:CATA:1,2014-09-05T23:30:00Z,30.3085,-88.1395,2.089,6.97,1111122 
DISL,ioos:station:DISL:CATA:1,2014-09-06T00:00:00Z,30.3085,-88.1395,2.09,6.93,1111122 
DISL,ioos:station:DISL:CATA:1,2014-09-06T00:30:00Z,30.3085,-88.1395,2.102,6.96,1111122 
DISL,ioos:station:DISL:CATA:1,2014-09-06T01:00:00Z,30.3085,-88.1395,2.114,6.64,1111122 
DISL,ioos:station:DISL:CATA:1,2014-09-06T01:30:00Z,30.3085,-88.1395,2.132,6.18,1111122 
DISL,ioos:station:DISL:CATA:1,2014-09-06T02:00:00Z,30.3085,-88.1395,2.142,6.55,1111122 
DISL,ioos:station:DISL:CATA:1,2014-09-06T02:30:00Z,30.3085,-88.1395,2.173,6.41,1111122 
DISL,ioos:station:DISL:CATA:1,2014-09-06T03:00:00Z,30.3085,-88.1395,2.183,6.4,1111122 
DISL,ioos:station:DISL:CATA:1,2014-09-06T03:30:00Z,30.3085,-88.1395,2.19,6.26,1111122 
DISL,ioos:station:DISL:CATA:1,2014-09-06T04:00:00Z,30.3085,-88.1395,2.206,6.23,1111122 
DISL,ioos:station:DISL:CATA:1,2014-09-06T04:30:00Z,30.3085,-88.1395,2.236,6.21,1111122 
DISL,ioos:station:DISL:CATA:1,2014-09-06T05:00:00Z,30.3085,-88.1395,2.253,6.14,1111122 
DISL,ioos:station:DISL:CATA:1,2014-09-06T05:30:00Z,30.3085,-88.1395,2.274,5.88,1111122 
DISL,ioos:station:DISL:CATA:1,2014-09-06T06:00:00Z,30.3085,-88.1395,2.3,5.76,1111122 
DISL,ioos:station:DISL:CATA:1,2014-09-06T06:30:00Z,30.3085,-88.1395,2.316,5.77,1111122 
DISL,ioos:station:DISL:CATA:1,2014-09-06T07:00:00Z,30.3085,-88.1395,2.333,5.83,1111122 
DISL,ioos:station:DISL:CATA:1,2014-09-06T07:30:00Z,30.3085,-88.1395,2.344,5.81,1111122 
DISL,ioos:station:DISL:CATA:1,2014-09-06T08:00:00Z,30.3085,-88.1395,2.376,5.86,1111122 
DISL,ioos:station:DISL:CATA:1,2014-09-06T08:30:00Z,30.3085,-88.1395,2.389,5.99,1111122 
DISL,ioos:station:DISL:CATA:1,2014-09-06T09:00:00Z,30.3085,-88.1395,2.399,6.07,1111122 
DISL,ioos:station:DISL:CATA:1,2014-09-06T09:30:00Z,30.3085,-88.1395,2.417,5.96,1111122 
DISL,ioos:station:DISL:CATA:1,2014-09-06T10:00:00Z,30.3085,-88.1395,2.445,5.92,1111122 
DISL,ioos:station:DISL:CATA:1,2014-09-06T10:30:00Z,30.3085,-88.1395,2.452,5.82,1111122 
DISL,ioos:station:DISL:CATA:1,2014-09-06T11:00:00Z,30.3085,-88.1395,2.464,5.67,1111122 
DISL,ioos:station:DISL:CATA:1,2014-09-06T11:30:00Z,30.3085,-88.1395,2.479,5.59,1111122 
DISL,ioos:station:DISL:CATA:1,2014-09-06T12:00:00Z,30.3085,-88.1395,2.503,5.48,1111122 
DISL,ioos:station:DISL:CATA:1,2014-09-06T12:30:00Z,30.3085,-88.1395,2.499,4.87,1111122 
DISL,ioos:station:DISL:CATA:1,2014-09-06T13:00:00Z,30.3085,-88.1395,2.503,4.08,1111122 
DISL,ioos:station:DISL:CATA:1,2014-09-06T13:30:00Z,30.3085,-88.1395,2.497,3.53,1111122 
DISL,ioos:station:DISL:CATA:1,2014-09-06T14:00:00Z,30.3085,-88.1395,2.506,3.33,1111122 
DISL,ioos:station:DISL:CATA:1,2014-09-06T14:30:00Z,30.3085,-88.1395,2.498,3.22,1111122 
DISL,ioos:station:DISL:CATA:1,2014-09-06T15:00:00Z,30.3085,-88.1395,2.501,3.12,1111122 
DISL,ioos:station:DISL:CATA:1,2014-09-06T15:30:00Z,30.3085,-88.1395,2.485,2.81,1111122 